Location: Piacenza
(44.1464°N, 88.7073°W)
Time: 14:15:00
(UTC+00:00)

ISS - Visible Passes

Search period start: 20 May 2022 00:00
Search period end: 30 May 2022 00:00
Orbit: 414 x 421 km, 51.6° (Epoch: 20 May)

Date Brightness Start Highest point End Pass type
(mag) Time Alt. Az. Time Alt. Az. Time Alt. Az.
20 May -2.3 01:55:02 10° W 01:58:13 40° NNW 02:01:26 10° NE visible
20 May -1.2 03:32:55 10° NW 03:35:37 22° N 03:38:19 10° NE visible
20 May -1.9 05:10:00 10° NW 05:12:35 31° N 05:12:35 31° N visible
21 May -1.3 02:44:42 10° WNW 02:47:28 23° N 02:50:14 10° NE visible
21 May -1.7 04:22:03 10° NW 04:24:57 27° NNE 04:26:06 22° NE visible
21 May -0.9 05:58:41 10° WNW 05:59:00 12° WNW 05:59:00 12° WNW visible
22 May -1.5 01:56:25 10° WNW 01:59:19 26° NNW 02:02:13 10° NE visible
22 May -1.5 03:34:02 10° NW 03:36:49 23° N 03:39:35 10° ENE visible
22 May -1.9 05:10:44 10° NW 05:12:32 28° NW 05:12:32 28° NW visible
23 May -1.4 02:45:55 10° NW 02:48:38 22° N 02:51:20 10° ENE visible
23 May -2.7 04:22:46 10° NW 04:26:00 42° NNE 04:26:04 42° NNE visible
24 May -1.4 01:57:43 10° NW 02:00:25 22° N 02:03:08 10° NE visible
24 May -2.2 03:34:48 10° NW 03:37:52 32° NNE 03:39:37 19° ENE visible
24 May -1.3 05:11:29 10° WNW 05:12:30 18° WNW 05:12:30 18° WNW visible
25 May -1.8 02:46:47 10° NW 02:49:41 26° NNE 02:52:35 10° ENE visible
25 May -3.1 04:23:25 10° WNW 04:26:03 52° WNW 04:26:03 52° WNW visible
26 May -1.6 01:58:40 10° NW 02:01:27 23° N 02:04:14 10° ENE visible
26 May -3.4 03:35:23 10° NW 03:38:42 59° NNE 03:39:35 41° E visible
27 May -2.7 02:47:21 10° NW 02:50:33 41° NNE 02:53:10 14° E visible
27 May -2.1 04:24:12 10° WNW 04:26:04 25° W 04:26:04 25° W visible
28 May -2.2 01:59:17 10° NW 02:02:20 31° NNE 02:05:23 10° E visible
28 May -3.7 03:35:57 10° WNW 03:39:16 57° SW 03:39:38 53° S visible
29 May -3.8 02:47:49 10° WNW 02:51:10 87° NNE 02:53:14 21° ESE visible
29 May -1.0 04:25:46 10° W 04:26:09 11° WSW 04:26:09 11° WSW visible
